Time,TemperatureF,DewpointF,PressureIn,WindDirection,WindDirectionDegrees,WindSpeedMPH,WindSpeedGustMPH,Humidity,HourlyPrecipIn,Conditions,Clouds,dailyrainin,SoftwareType,DateUTC
2013-08-26 00:23:00,72.0,67.0,-100.00,ESE,115,2.0,7.0,84,-99.99,,,-99.99,,2013-08-26 05:23:00,
2013-08-26 00:52:00,72.0,67.0,-100.00,SE,130,2.0,5.0,83,-99.99,,,-99.99,,2013-08-26 05:52:00,
2013-08-26 01:22:00,72.0,66.0,-100.00,SSE,155,1.0,4.0,83,-99.99,,,-99.99,,2013-08-26 06:22:00,
2013-08-26 01:52:00,72.0,66.0,-100.00,ESE,110,3.0,6.0,82,-99.99,,,-99.99,,2013-08-26 06:52:00,
2013-08-26 02:22:00,71.0,66.0,-100.00,SE,145,2.0,4.0,85,-99.99,,,-99.99,,2013-08-26 07:22:00,
2013-08-26 02:52:00,70.0,65.0,-100.00,ESE,120,2.0,6.0,86,-99.99,,,-99.99,,2013-08-26 07:52:00,
2013-08-26 03:22:00,70.0,65.0,-100.00,SE,145,4.0,7.0,86,-99.99,,,-99.99,,2013-08-26 08:22:00,
2013-08-26 03:52:00,69.0,65.0,-100.00,ESE,120,2.0,5.0,86,-99.99,,,-99.99,,2013-08-26 08:52:00,
2013-08-26 04:21:00,68.0,65.0,-100.00,SE,145,2.0,4.0,90,-99.99,,,-99.99,,2013-08-26 09:21:00,
2013-08-26 04:54:00,69.0,65.0,-100.00,SSE,155,4.0,5.0,89,-99.99,,,-99.99,,2013-08-26 09:54:00,
2013-08-26 05:23:00,68.0,65.0,-100.00,SE,135,3.0,6.0,89,-99.99,,,-99.99,,2013-08-26 10:23:00,
2013-08-26 05:52:00,68.0,65.0,-100.00,SE,145,4.0,7.0,89,-99.99,,,-99.99,,2013-08-26 10:52:00,
2013-08-26 06:22:00,69.0,65.0,-100.00,SE,140,4.0,6.0,88,-99.99,,,-99.99,,2013-08-26 11:22:00,
2013-08-26 06:52:00,68.0,64.0,-100.00,SE,145,4.0,6.0,88,-99.99,,,-99.99,,2013-08-26 11:52:00,
2013-08-26 07:22:00,68.0,65.0,-100.00,SSE,150,4.0,6.0,90,-99.99,,,-99.99,,2013-08-26 12:22:00,
2013-08-26 07:52:00,69.0,65.0,-100.00,ESE,120,4.0,8.0,88,-99.99,,,-99.99,,2013-08-26 12:52:00,
2013-08-26 08:21:00,70.0,66.0,-100.00,SE,125,4.0,6.0,88,-99.99,,,-99.99,,2013-08-26 13:21:00,
2013-08-26 08:52:00,71.0,67.0,-100.00,SE,135,4.0,7.0,86,-99.99,,,-99.99,,2013-08-26 13:52:00,
2013-08-26 09:22:00,74.0,68.0,-100.00,ESE,120,4.0,8.0,83,-99.99,,,-99.99,,2013-08-26 14:22:00,
2013-08-26 09:52:00,77.0,70.0,-100.00,SE,140,3.0,6.0,78,-99.99,,,-99.99,,2013-08-26 14:52:00,
2013-08-26 10:22:00,81.0,71.0,-100.00,ESE,105,4.0,8.0,73,-99.99,,,-99.99,,2013-08-26 15:22:00,
2013-08-26 10:59:00,83.0,71.0,-100.00,ESE,120,4.0,7.0,66,-99.99,,,-99.99,,2013-08-26 15:59:00,
2013-08-26 11:29:00,87.0,72.0,-100.00,SSE,160,3.0,7.0,62,-99.99,,,-99.99,,2013-08-26 16:29:00,
2013-08-26 11:59:00,89.0,73.0,-100.00,SW,230,1.0,5.0,58,-99.99,,,-99.99,,2013-08-26 16:59:00,
2013-08-26 12:24:00,91.0,72.0,-100.00,South,170,1.0,6.0,55,-99.99,,,-99.99,,2013-08-26 17:24:00,
2013-08-26 12:53:00,92.0,72.0,-100.00,SW,230,3.0,9.0,52,-99.99,,,-99.99,,2013-08-26 17:53:00,
2013-08-26 13:22:00,92.0,73.0,-100.00,WSW,245,2.0,6.0,54,-99.99,,,-99.99,,2013-08-26 18:22:00,
2013-08-26 13:52:00,91.0,72.0,-100.00,South,185,2.0,6.0,53,-99.99,,,-99.99,,2013-08-26 18:52:00,
2013-08-26 14:22:00,94.0,72.0,-100.00,SSW,205,2.0,7.0,50,-99.99,,,-99.99,,2013-08-26 19:22:00,
2013-08-26 14:52:00,92.0,70.0,-100.00,SSE,155,1.0,6.0,48,-99.99,,,-99.99,,2013-08-26 19:52:00,
2013-08-26 15:22:00,92.0,71.0,-100.00,SW,230,1.0,8.0,51,-99.99,,,-99.99,,2013-08-26 20:22:00,
2013-08-26 15:52:00,94.0,70.0,-100.00,South,180,4.0,7.0,47,-99.99,,,-99.99,,2013-08-26 20:52:00,
2013-08-26 16:22:00,92.0,70.0,-100.00,SE,140,5.0,11.0,49,-99.99,,,-99.99,,2013-08-26 21:22:00,
2013-08-26 16:55:00,93.0,71.0,-100.00,SE,140,4.0,13.0,49,-99.99,,,-99.99,,2013-08-26 21:55:00,
2013-08-26 17:26:00,93.0,70.0,-100.00,SE,145,4.0,13.0,48,-99.99,,,-99.99,,2013-08-26 22:26:00,
2013-08-26 17:53:00,92.0,71.0,-100.00,SE,130,5.0,8.0,50,-99.99,,,-99.99,,2013-08-26 22:53:00,
2013-08-26 18:22:00,91.0,70.0,-100.00,SE,130,4.0,9.0,50,-99.99,,,-99.99,,2013-08-26 23:22:00,
2013-08-26 18:52:00,90.0,69.0,-100.00,SE,145,5.0,10.0,50,-99.99,,,-99.99,,2013-08-26 23:52:00,
2013-08-26 19:21:00,88.0,70.0,-100.00,SE,135,3.0,6.0,55,-99.99,,,-99.99,,2013-08-27 00:21:00,
2013-08-26 19:52:00,85.0,71.0,-100.00,SE,145,1.0,5.0,63,-99.99,,,-99.99,,2013-08-27 00:52:00,
2013-08-26 20:52:00,82.0,72.0,-100.00,SE,125,4.0,6.0,72,-99.99,,,-99.99,,2013-08-27 01:52:00,
2013-08-26 21:52:00,79.0,72.0,-100.00,SSE,150,2.0,4.0,81,-99.99,,,-99.99,,2013-08-27 02:52:00,
2013-08-26 22:22:00,79.0,72.0,-100.00,SSE,160,1.0,5.0,80,-99.99,,,-99.99,,2013-08-27 03:22:00,
2013-08-26 22:58:00,78.0,72.0,-100.00,SSE,150,2.0,4.0,81,-99.99,,,-99.99,,2013-08-27 03:58:00,
2013-08-26 23:29:00,78.0,72.0,-100.00,SE,140,4.0,5.0,82,-99.99,,,-99.99,,2013-08-27 04:29:00,
2013-08-26 23:54:00,77.0,71.0,-100.00,SE,125,3.0,5.0,82,-99.99,,,-99.99,,2013-08-27 04:54:00,